Simultaneous Nadir Overpasses (SNOs) Predictions

Prediction of SNOs between AQUA and METOP-B Satellite Orbit:

Table of predicted SNOs for the next 14.0 days since TLE Epoch: 2/2/2017
Index Date (AQUA) Time (AQUA) Lat,Lon (AQUA) SZA (AQUA ) Date (METOP-B) Time (METOP-B) Lat,Lon (METOP-B) SZA (METOP-B ) Distance(km) Time Diff (sec)
1 02/03/2017 19:31:44 73.70,-118.51 90.08 02/03/2017 19:30:49 73.69,-118.44 90.09 2.26 55
2 02/03/2017 20:21:10 -73.74, 49.05 89.89 02/03/2017 20:21:30 -73.72, 48.97 89.90 2.96 20
3 02/03/2017 21:10:51 74.42,-144.87 90.85 02/03/2017 21:11:56 74.41,-142.00 90.72 85.88 65
4 02/06/2017 15:06:00 73.69, -52.05 89.22 02/06/2017 15:05:12 73.69, -52.04 89.23 0.34 48
5 02/06/2017 15:55:27 -73.78, 115.40 90.70 02/06/2017 15:55:52 -73.77, 115.48 90.71 2.48 25
6 02/09/2017 10:40:15 73.69, 14.39 88.33 02/09/2017 10:39:34 73.68, 14.36 88.34 1.14 41
7 02/09/2017 11:29:42 -73.77,-178.15 91.60 02/09/2017 11:30:14 -73.77,-178.12 91.61 1.18 32
8 02/12/2017 06:14:31 73.70, 80.80 87.42 02/12/2017 06:13:57 73.68, 80.75 87.41 2.79 34
9 02/12/2017 07:03:58 -73.78,-111.73 92.51 02/12/2017 07:04:37 -73.76,-111.72 92.53 1.82 39
10 02/15/2017 01:48:47 73.72, 147.20 86.49 02/15/2017 01:48:19 73.73, 147.27 86.50 2.18 28
11 02/15/2017 02:38:14 -73.80, -45.32 93.45 02/15/2017 02:38:59 -73.81, -45.21 93.45 3.88 45




NCC Satellite Simultaneous Nadir Overpasses (SNOs) Prediction Service
